Regional Weather Roundup
Issued by NWS

Home | Current Version | Previous Version | Text Only | Print | Product List | Glossary On
Versions: 1 2 3 4 5 6 7 8 9 10 11 12 13 14 15 16 17 18 19 20 21 22 23 24 25 26 27 28 29 30 31 32 33 34 35 36 37 38 39 40 41 42 43 44 45 46 47 48 49 50
000
ASUS43 KDTX 021201
RWRMI
MICHIGAN HOURLY REGIONAL WEATHER ROUNDUP
NATIONAL WEATHER SERVICE DETROIT/PONTIAC MI
800 AM EDT TUE SEP 02 2014

NOTE: "FAIR" INDICATES FEW OR NO CLOUDS BELOW 12,000 FEET WITH NO
SIGNIFICANT WEATHER AND/OR OBSTRUCTION TO VISIBILITY.

MIZ047>049-052>055-059>063-066>070-074>076-081>083-021300-
SOUTHEAST LOWER MICHIGAN

CITY           SKY/WX    TMP DP  RH WIND       PRES   REMARKS
ADRIAN         CLOUDY    68  66  93 SW9       29.91R
6HR MIN TEMP:  67; 6HR MAX TEMP:  70; 6HR PCP: TRACE;

ALMA           MOCLDY    64  63  95 W3        29.86S
BAD AXE        CLOUDY    67  67 100 W5        29.84S FOG
6HR MIN TEMP:  65; 6HR MAX TEMP:  68;

CARO           CLOUDY    67  66  97 W6        29.84S
DETROIT CITY   CLOUDY    72  66  81 W8        29.88R
6HR MIN TEMP:  72; 6HR MAX TEMP:  75; 6HR PCP: TRACE;

DETROIT        LGT RAIN  69  66  90 SW8       29.89R
6HR MIN TEMP:  68; 6HR MAX TEMP:  71; 6HR PCP: TRACE;

FLINT          CLOUDY    70  65  84 SW6       29.87R
6HR MIN TEMP:  69; 6HR MAX TEMP:  72;

GROSSE ILE     RAIN      70  66  88 SW10      29.89R
HILLSDALE      CLOUDY    70  69  98 SW6       29.90S
HOWELL         CLOUDY    67  66  97 W5        29.88R

CITY           SKY/WX    TMP DP  RH WIND       PRES   REMARKS
JACKSON        CLOUDY    69  66  90 SW7       29.89R
6HR MIN TEMP:  69; 6HR MAX TEMP:  71;

LAMBERTVILLE   LGT RAIN  70  66  88 SW7       29.90S
LANSING        CLOUDY    67  65  93 SW6       29.88R
6HR MIN TEMP:  67; 6HR MAX TEMP:  72; 6HR PCP: TRACE;

LAPEER         FAIR      68  65  92 SW5       29.86S
MASON          CLOUDY    67  65  94 CALM      29.89R
MONROE         CLOUDY    70  66  88 SW9       29.89R
MT. CLEMENS    CLOUDY    70  68  92 SW8       29.87R
6HR MIN TEMP:  69; 6HR MAX TEMP:  71;

PONTIAC        CLOUDY    69  66  90 SW7       29.87R
6HR MIN TEMP:  69; 6HR MAX TEMP:  70;

PORT HOPE        N/A     67  65  93 SW5       29.82R
6HR MIN TEMP:  67; 6HR MAX TEMP:  70;

PORT HURON     CLOUDY    68  68 100 SW3       29.86R FOG
TRI CITIES     CLOUDY    67  64  90 W7        29.86R
6HR MIN TEMP:  67; 6HR MAX TEMP:  70;

TROY           CLOUDY    70  67  89 SW6       29.90R
SAGINAW HB     CLOUDY    68  68 100 W5        29.85R
$$
MIZ043>046-050>051-056>058-064>065-071>073-077>080-021300-
SOUTHWEST LOWER MICHIGAN

CITY           SKY/WX    TMP DP  RH WIND       PRES   REMARKS
BATTLE CREEK   CLOUDY    69  66  90 W3        29.89S
6HR MIN TEMP:  68; 6HR MAX TEMP:  71;

BENTON HARBOR  CLOUDY    66  65  96 CALM      29.88R FOG
6HR MIN TEMP:  65; 6HR MAX TEMP:  72;

BIG RAPIDS     FOG       59  59 100 CALM      29.87R VSB 1/4
6HR MIN TEMP:  58; 6HR MAX TEMP:  65;

COLDWATER      CLOUDY    70  68  92 SW3       29.89F
6HR MIN TEMP:  69; 6HR MAX TEMP:  71;

FREMONT        FOG       57  57  99 CALM      29.86S VSB<1/4
HOLLAND        CLOUDY    66  64  93 CALM      29.88R
6HR MIN TEMP:  64; 6HR MAX TEMP:  72;

GRAND RAPIDS   MOCLDY    66  66 100 SW5       29.87R
6HR MIN TEMP:  66; 6HR MAX TEMP:  71; 6HR PCP: TRACE;

IONIA          FAIR      65  64  96 CALM      29.87R
KALAMAZOO      CLOUDY    68  66  93 SW3       29.88S
6HR MIN TEMP:  67; 6HR MAX TEMP:  72;

LUDINGTON      FOG       57  56  97 CALM      29.87R VSB<1/4
6HR MIN TEMP:  57; 6HR MAX TEMP:  67;

MARSHALL       CLOUDY    68  66  92 SW3       29.88S
MOUNT PLEASANT PTCLDY    63  62  96 W3        29.85S
6HR MIN TEMP:  63; 6HR MAX TEMP:  67;

MUSKEGON       PTCLDY    66  63  90 NW3       29.87R
6HR MIN TEMP:  65; 6HR MAX TEMP:  70;

SOUTH HAVEN    CLOUDY    65  65  98 CALM      29.88R
$$
MIZ016>042-021300-
NORTHERN LOWER MICHIGAN

CITY           SKY/WX    TMP DP  RH WIND       PRES   REMARKS
ALPENA         MOSUNNY   64  62  93 W3        29.82
6HR MIN TEMP:  62; 6HR MAX TEMP:  66;

BEAVER ISLAND  CLEAR     62  61  95 CALM      29.80S
6HR MIN TEMP:  59; 6HR MAX TEMP:  63;

BELLAIRE       CLOUDY    64  63  96 S3        29.82R
6HR MIN TEMP:  62; 6HR MAX TEMP:  65;

CADILLAC       CLOUDY    60  60 100 SW3       29.86R FOG
CHARLEVOIX     PTCLDY    65  64  99 SW7       29.84S
6HR MIN TEMP:  63; 6HR MAX TEMP:  65;

FRANKFORT      CLEAR     57  55  91 CALM      29.84R
GAYLORD        FOG       60  60 100 SW5       29.85R VSB 1/4
6HR MIN TEMP:  60; 6HR MAX TEMP:  64;

GRAYLING       PTCLDY    61  61 100 CALM      29.86R FOG
6HR MIN TEMP:  61; 6HR MAX TEMP:  64;

HARBOR SPRINGS MOCLDY    63  61  93 CALM      29.82R
HOUGHTON LAKE  CLOUDY    64  61  90 W5        29.86R
6HR MIN TEMP:  64; 6HR MAX TEMP:  67;

MANISTEE         N/A     55  52  88 E3        29.86R VSB 3/4
OSCODA         MOSUNNY   61  61 100 CALM      29.82S FOG
PELLSTON       CLEAR     57  56  96 CALM      29.82R
6HR MIN TEMP:  54; 6HR MAX TEMP:  64;

ROGERS CITY    CLEAR     63  61  94 SW5       29.82S
TRAVERSE CITY  MOCLDY    64  61  90 CALM      29.82R
6HR MIN TEMP:  62; 6HR MAX TEMP:  67;

$$
MIZ007>008-015-021300-
EASTERN UPPER MICHIGAN

CITY           SKY/WX    TMP DP  RH WIND       PRES   REMARKS
KINROSS        PTCLDY    59  59 100 SW3       29.79S
6HR MIN TEMP:  57; 6HR MAX TEMP:  61;

MACKINAC ISLAN PTCLDY    62  62 100 W7        29.80S
6HR MIN TEMP:  61; 6HR MAX TEMP:  63;

NEWBERRY       CLEAR     55  55  98 W6        29.79R
S. S. MARIE    PTCLDY    58  56  93 SW3       29.78R
6HR MIN TEMP:  56; 6HR MAX TEMP:  62;

$$
MIZ004>006-011>014-085-021300-
CENTRAL UPPER MICHIGAN

CITY           SKY/WX    TMP DP  RH WIND       PRES   REMARKS
MANISTIQUE     CLEAR     57  55  94 CALM      29.80R
ESCANABA       CLEAR     52  48  87 W5        29.81S
6HR MIN TEMP:  52; 6HR MAX TEMP:  57;

MENOMINEE      CLEAR     55  52  88 CALM      29.83R
6HR MIN TEMP:  54; 6HR MAX TEMP:  61;

SAWYER-GWINN   CLEAR     52  50  93 SW6       29.81R
$$
MIZ001>003-009>011-084-021300-
WESTERN UPPER MICHIGAN

CITY           SKY/WX    TMP DP  RH WIND       PRES   REMARKS
IRON MOUNTAIN  CLEAR     52  50  93 CALM      29.82R
6HR MIN TEMP:  49; 6HR MAX TEMP:  57;

HOUGHTON       MOCLDY    59  52  77 W12       29.77R
6HR MIN TEMP:  54; 6HR MAX TEMP:  59;

COPPER HARBOR    N/A     63  52  67 W8        29.74R
6HR MIN TEMP:  59; 6HR MAX TEMP:  64;

$$

ABBREVIATIONS USED IN REMARKS
   TC - TEMPERATURE IN CELSIUS
  WCI - WIND CHILL INDEX
   HX - HEAT INDEX
  VSB - VISIBILITY




USA.gov is the U.S. government's official web portal to all federal, state and local government web resources and services.